Regional Weather Roundup
Issued by NWS Goodland, KS

Home | Current Version | Previous Version | Text Only | Print | Product List | Glossary Off
Versions: 1 2 3 4 5 6 7 8 9 10 11 12 13 14 15 16 17 18 19 20 21 22 23 24 25 26 27 28 29 30 31 32 33 34 35 36 37 38 39 40 41 42 43 44 45 46 47 48 49 50

000
ASUS43 KGLD 231708
RWRGLD

GOODLAND FORECAST AREA HOURLY WEATHER ROUNDUP
NATIONAL WEATHER SERVICE GOODLAND KS
1100 AM MDT WED MAY 23 2018

...OFFICIAL OBSERVATIONS...

CITY           SKY/WX    TMP DP  RH WIND       PRES   REMARKS
GOODLAND KS    CLOUDY    76  53  44 S20G28    30.00F
HILL CITY KS   CLOUDY    83  58  42 S20G31    29.99S
IMPERIAL NEB   PTSUNNY   77  53  43 S23G31    29.97F
MCCOOK NEB     PTSUNNY   79  58  48 S9G20     29.98F
AKRON CO       MOSUNNY   69  55  60 S8        30.02S
BURLINGTON CO  PTSUNNY   77  50  38 S25G39    30.03F
LIMON CO       MOSUNNY   71  46  40 S15G24    30.06S
$$

...UNOFFICIAL OBSERVATIONS...

CITY           SKY/WX    TMP DP  RH WIND       PRES   REMARKS
COLBY KS       CLOUDY    77  54  44 S8        30.02R
NORTON KS      SUNNY     82  54  36 SE10      29.98
SHARON SPRINGS   N/A     80  53  39 MISG        N/A
KIT CARSON CO    N/A     75  52  45 MISG        N/A
YUMA CO        FAIR      70  41  35 S17       30.00S
$$




USA.gov is the U.S. government's official web portal to all federal, state and local government web resources and services.